DW7603 Weather Reports


Display with metric or nautical units.
time (UTC)temp
F
wind
direction
speed
MPH
gust
MPH
rain 1hr
in
rain 24hr
in
rain mn
in
humidity
%
barometer
mb
20260906230043 93 80 0.0 3.0 0.00 0.00 0.00 16 1001.8
20260906224517 93 282 4.0 11.0 0.00 0.00 0.00 15 1001.9
20260906223058 93 290 5.0 14.0 0.00 0.00 0.00 16 1001.8
20260906221556 94 280 7.0 15.0 0.00 0.00 0.00 15 1001.9
20260906220025 94 45 2.0 9.0 0.00 0.00 0.00 15 1002.3
20260906214558 95 154 0.0 11.0 0.00 0.00 0.00 15 1002.8
20260906213034 94 190 2.0 14.0 0.00 0.00 0.00 15 1002.8
20260906211515 95 271 0.0 11.0 0.00 0.00 0.00 14 1003.4
20260906210055 95 199 1.0 9.0 0.00 0.00 0.00 14 1003.4
20260906204536 94 270 5.0 11.0 0.00 0.00 0.00 15 1003.9
20260906203030 93 138 1.0 9.0 0.00 0.00 0.00 15 1004.0
20260906201608 94 155 3.0 12.0 0.00 0.00 0.00 15 1004.3
20260906200037 96 78 3.0 8.0 0.00 0.00 0.00 14 1004.2
20260906194518 95 164 2.0 7.0 0.00 0.00 0.00 15 1004.5
20260906193100 95 294 5.0 8.0 0.00 0.00 0.00 14 1004.7
20260906193003 95 255 2.0 8.0 0.00 0.00 0.00 15 1004.6
20260906191536 94 118 2.0 7.0 0.00 0.00 0.00 15 1005.1
20260906190015 95 308 1.0 5.0 0.00 0.00 0.00 15 1005.4
20260906184550 93 331 4.0 9.0 0.00 0.00 0.00 15 1005.6
20260906183045 92 92 1.0 7.0 0.00 0.00 0.00 16 1005.9
20260906181516 91 124 1.0 5.0 0.00 0.00 0.00 17 1006.0
20260906180111 91 190 2.0 6.0 0.00 0.00 0.00 17 1006.5
20260906174531 91 107 3.0 7.0 0.00 0.00 0.00 18 1006.4
20260906173010 91 127 0.0 8.0 0.00 0.00 0.00 18 1006.8
20260906171545 88 175 1.0 7.0 0.00 0.00 0.00 21 1007.0
20260906170034 87 182 2.0 8.0 0.00 0.00 0.00 23 1006.9
20260906164503 84 129 2.0 9.0 0.00 0.00 0.00 25 1007.4
20260906163044 83 102 3.0 13.0 0.00 0.00 0.00 26 1007.3
20260906161518 81 114 2.0 10.0 0.00 0.00 0.00 27 1007.3
20260906160055 79 112 4.0 10.0 0.00 0.00 0.00 29 1007.3
20260906154533 78 85 5.0 12.0 0.00 0.00 0.00 28 1007.2
20260906153013 77 48 7.0 14.0 0.00 0.00 0.00 28 1007.3
20260906151547 76 105 6.0 13.0 0.00 0.00 0.00 29 1007.3
20260906150037 74 78 5.0 12.0 0.00 0.00 0.00 31 1007.5
20260906144519 73 65 6.0 11.0 0.00 0.00 0.00 32 1007.4
20260906143055 72 57 5.0 10.0 0.00 0.00 0.00 32 1007.2
20260906141536 72 59 3.0 11.0 0.00 0.00 0.00 33 1007.2
20260906140020 72 52 3.0 12.0 0.00 0.00 0.00 32 1007.1
20260906134556 71 54 6.0 12.0 0.00 0.00 0.00 33 1006.9
20260906133031 70 68 8.0 14.0 0.00 0.00 0.00 33 1006.8
20260906131515 70 20 7.0 13.0 0.00 0.00 0.00 32 1006.8
20260906130059 70 90 4.0 9.0 0.00 0.00 0.00 33 1006.7
20260906130000 70 36 4.0 9.0 0.00 0.00 0.00 33 1006.7
20260906124536 69 65 5.0 9.0 0.00 0.00 0.00 33 1006.5
20260906123029 70 47 6.0 12.0 0.00 0.00 0.00 33 1006.6
20260906121606 70 58 7.0 13.0 0.00 0.00 0.00 32 1006.5
20260906121504 70 53 8.0 13.0 0.00 0.00 0.00 32 1006.6
20260906120045 70 84 5.0 10.0 0.00 0.00 0.00 32 1006.5
20260906114530 69 79 4.0 10.0 0.00 0.00 0.00 34 1006.4
20260906113019 70 15 3.0 6.0 0.00 0.00 0.00 32 1006.4
20260906111541 71 64 3.0 6.0 0.00 0.00 0.00 33 1006.4
20260906110025 71 62 4.0 6.0 0.00 0.00 0.00 33 1006.2
20260906104510 72 61 3.0 6.0 0.00 0.00 0.00 33 1006.3
20260906103043 72 27 3.0 5.0 0.00 0.00 0.00 33 1006.3
20260906101525 72 43 2.0 5.0 0.00 0.00 0.00 34 1006.1
20260906100059 73 104 1.0 5.0 0.00 0.00 0.00 33 1006.3
20260906100002 73 81 2.0 5.0 0.00 0.00 0.00 33 1006.2
20260906094544 73 23 4.0 6.0 0.00 0.00 0.00 33 1006.2
20260906093022 73 22 4.0 8.0 0.00 0.00 0.00 33 1006.1
20260906091518 73 5 5.0 10.0 0.00 0.00 0.00 33 1006.1
20260906090056 73 36 4.0 8.0 0.00 0.00 0.00 32 1006.1
20260906084525 74 43 3.0 8.0 0.00 0.00 0.00 32 1006.2
20260906083013 74 25 3.0 6.0 0.00 0.00 0.00 32 1006.4
20260906081550 74 44 2.0 6.0 0.00 0.00 0.00 31 1006.4
20260906080031 74 44 3.0 6.0 0.00 0.00 0.00 32 1006.5
20260906074512 74 28 3.0 6.0 0.00 0.00 0.00 32 1006.7
20260906073046 74 26 0.0 3.0 0.00 0.00 0.00 32 1006.8
20260906071538 74 104 3.0 8.0 0.00 0.00 0.00 32 1006.9
20260906070012 74 107 2.0 10.0 0.00 0.00 0.00 32 1006.8
20260906064552 76 111 3.0 10.0 0.00 0.00 0.00 30 1006.6
20260906063033 76 19 7.0 14.0 0.00 0.00 0.00 30 1006.3
20260906061515 76 319 8.0 16.0 0.00 0.00 0.00 30 1006.1
20260906060057 76 15 7.0 14.0 0.00 0.00 0.00 30 1006.2
20260906054535 76 13 8.0 14.0 0.00 0.00 0.00 30 1006.1
20260906053022 76 48 10.0 14.0 0.00 0.00 0.00 30 1006.2
20260906051601 76 5 7.0 11.0 0.00 0.00 0.00 31 1006.1
20260906050044 76 349 8.0 12.0 0.00 0.00 0.00 31 1006.1
20260906044531 76 26 7.0 11.0 0.00 0.00 0.00 31 1006.2
20260906043054 77 24 7.0 12.0 0.00 0.00 0.00 31 1006.3
20260906041536 77 41 7.0 11.0 0.00 0.00 0.00 31 1006.2
20260906040023 77 327 5.0 9.0 0.00 0.00 0.00 30 1006.4
20260906034553 78 66 7.0 14.0 0.00 0.00 0.00 30 1006.3
20260906033040 79 52 4.0 11.0 0.00 0.00 0.00 29 1006.5
20260906031514 79 33 7.0 11.0 0.00 0.00 0.00 29 1006.1
20260906030048 79 28 6.0 11.0 0.00 0.00 0.00 29 1005.9
20260906024532 80 5 6.0 11.0 0.00 0.00 0.00 28 1005.8
20260906023012 80 22 8.0 11.0 0.00 0.00 0.00 27 1005.5
20260906021553 81 211 5.0 11.0 0.00 0.00 0.00 27 1005.4
20260906020037 82 348 5.0 9.0 0.00 0.00 0.00 28 1005.4
20260906014518 83 320 4.0 7.0 0.00 0.00 0.00 27 1005.2
20260906013103 84 69 4.0 11.0 0.00 0.00 0.00 26 1005.2
20260906013008 84 50 4.0 11.0 0.00 0.00 0.00 26 1005.3
20260906011542 85 23 4.0 14.0 0.00 0.00 0.00 25 1005.1
20260906010020 86 55 3.0 11.0 0.00 0.00 0.00 25 1005.2
20260906004559 86 99 4.0 11.0 0.00 0.00 0.00 25 1005.2
20260906003040 86 66 5.0 11.0 0.00 0.00 0.00 25 1005.4
20260906001523 87 5 4.0 12.0 0.00 0.00 0.00 24 1005.4
20260906000100 88 35 4.0 11.0 0.00 0.00 0.00 24 1005.3
20260906000002 88 53 4.0 11.0 0.00 0.00 0.00 24 1005.2
20260905234544 88 13 2.0 8.0 0.00 0.00 0.00 25 1005.3
20260905233024 87 74 2.0 13.0 0.00 0.00 0.00 25 1005.4
20260905231504 88 36 6.0 15.0 0.00 0.00 0.00 24 1005.3